Location: Brenthaven South
(35.9676°N, 86.7969°W)
Time: 16:09:47
(UTC+00:00)

Daily predictions for brighter satellites

Satellite Brightness Start Highest point End
(mag) Time Altitude Azimuth Time Altitude Azimuth Time Altitude Azimuth
Cosmos 2058 Rocket 3.2 23:22:50 10° S 23:27:10 84° W 23:31:33 10° N
Cosmos 839 Rocket 4.3 23:21:28 10° NNW 23:27:47 64° ENE 23:35:13 10° SE
Unknown 3.3 23:26:24 10° NNW 23:29:22 42° NE 23:32:22 10° ESE
Cosmos 2278 Rocket 2.4 23:26:42 10° SSW 23:32:22 82° WNW 23:38:04 10° NNE
Meteor 2-10 4.1 23:30:30 10° S 23:35:34 80° W 23:40:37 10° N
Unknown 4.2 23:33:49 10° WNW 23:36:16 34° SW 23:38:44 10° SSE
Cosmos 2297 4.4 23:32:58 10° SSE 23:37:53 31° ESE 23:42:52 10° NE
USA 238 DEB 3.7 23:33:46 10° SSW 23:40:26 90° NW 23:47:18 10° NNE
USA 238 3.7 23:33:53 10° SSW 23:40:32 89° ESE 23:47:24 10° NNE
CSL-04 Rocket 4.3 23:36:39 10° SE 23:41:34 34° ENE 23:46:26 10° N
COSMO-SKYMED 1 2.5 23:41:30 10° NNE 23:45:50 68° ESE 23:50:08 10° S
FengYun 1-2 T 4.4 23:41:11 10° SE 23:46:37 51° ENE 23:52:01 10° N
Meteor 1-11 4.2 23:47:15 10° N 23:53:04 79° E 23:58:52 10° SSE
Cosmos 1300 3.3 23:50:49 10° SSE 23:54:17 35° E 23:57:47 10° NNE
Okean-O 3.2 23:50:18 10° S 23:54:40 63° WSW 23:59:05 10° NNW
